Find Bangabandhu 1

NORAD ID: 43463 Int'l Des: 2018-044 Owner: BCSCL Country: BD operational
HEOCIRCULARGSOGEO

当前视图

正在加载3D地球...

关于 Bangabandhu 1

正在加载描述...

即将过境

Passes for default location (London). Set your location on the main map for personalized predictions.

高度历史

Loading altitude history...

两行轨道根数

1 43463U 18044A 26148.74211523 .00000000 00000-0 00000+0 0 9992
2 43463 0.0170 336.2449 0002315 93.0551 203.2326 1.00267614 29517
Epoch: May 28, 2026 • Age: 31 hours

当前状态

高度 35782.2 km
速度 3.08 km/s
星下点 0.03°N, 119.04°E
发射日期 May 11, 2018
运行时间 8 years
类型 other

技术详情

分类 Payload
质量 3700.00 kg
干质量 2000.00 kg
总质量 3700.00 kg
长度 5.00 m
直径 2.50 m
跨度 38.00 m
形状 Box + 2 Pan
制造商 THALES
平台类型 Spacebus 4000B2
阶段状态 In Orbit
所有者/国家 BCSCL/BD

Most Searched